Location: ?ern� Novina
(50.6762°N, 14.8696°E)
Time: 02:57:00
(UTC+00:00)

Cosmos 2278 Rocket - Pass Details

Date: 03 March 2021
Orbit: 841 x 845 km, 71.0° (Epoch: 13 April)

Event Time Altitude Azimuth Distance (km) Brightness Sun altitude
Rises 20:23:50 0° 326° (NW) 3,416 6.3 -33.7°
Reaches altitude 10° 20:26:24 10° 319° (NW) 2,476 5.4 -34.0°
Enters shadow 20:30:45 38° 275° (W) 1,269 3.4 -34.5°
